sat.trackr.live / text

‹ back to catalog

TDRS 11

NORAD 39070 · 2013-004A

PAYLOAD ACTIVE UNKNOWN

§ Identity

Operator
Country
US
Launch date
2013-01-31
Launch site
AFETR
Launch vehicle
Mass (kg)
RCS (m²)
25.12

Purposes: comms

External: N2YO · Heavens-Above · Gunter

§ Orbital elements

Epoch: 2026-05-25T02:35:22.680096Z

Period
1,436.06 min
Inclination
3.4873°
Eccentricity
0.0005179
Mean motion
1.00274622 rev/d
Perigee alt
35,764.0 km
Apogee alt
35,807.6 km
Semi-major
42,163.9 km
B*
0.0000e+0
RAAN
30.8668°
Arg perigee
16.1311°
Mean anomaly
60.1512°
Rev number
4,646

§ Raw data

TDRS 111 39070U 13004A   26145.10790139  .00000077  00000+0  00000+0 0  99972 39070   3.4873  30.8668 0005179  16.1311  60.1512  1.00274622 46461

JSON: /api/v1/satellites/39070 · /tle

For live sub-satellite position, see the globe view (requires WebGL).

§ Visibility from observer

Set your observer location to see the next 7 days of passes ≥ 10°. The values pass through the URL so the page stays shareable.

No JS? Fill the form by hand. The geolocation button needs JavaScript.